Powrót do katalogu

SPACEMOBILE-012

AktywnyVLEO
NORAD 100241·PAYLOAD·🇺🇸 United States

Wystrzelony Aug 5, 2026 z Cape Canaveral Space Force Station

Loading…

Następne Przeloty (najbliższe 24 godziny)

TLE

ŚwieżeSource: Space-Track

Epoka: Sep 14, 2026, 22:34 UTC

1 A0241U 26179B   26257.94053074  .00001183  00000-0  82529-4 0  9999
2 A0241  52.9955 143.5194 0007548  98.2282 261.9565 15.13286456  6153

Śledź SPACEMOBILE-012 w czasie rzeczywistym z AllMySat

Download on the App Store